TimeCST,TemperatureF,Dew PointF,Humidity,Sea Level PressureIn,VisibilityMPH,Wind Direction,Wind SpeedMPH,Gust SpeedMPH,PrecipitationIn,Events,Conditions,WindDirDegrees,DateUTC
12:15 AM,10.4,8.6,92,30.34,5.0,Calm,Calm,-,N/A,,Clear,0,2012-12-30 06:15:00
12:55 AM,10.4,8.6,92,30.34,7.0,Calm,Calm,-,N/A,,Clear,0,2012-12-30 06:55:00
1:15 AM,10.4,6.8,85,30.35,6.0,Calm,Calm,-,N/A,,Clear,0,2012-12-30 07:15:00
1:35 AM,8.6,8.6,100,30.37,7.0,Calm,Calm,-,N/A,,Clear,0,2012-12-30 07:35:00
1:55 AM,10.4,8.6,92,30.37,8.0,WNW,4.6,-,N/A,,Clear,290,2012-12-30 07:55:00
2:15 AM,15.8,15.8,100,30.37,10.0,WNW,3.5,-,N/A,,Clear,300,2012-12-30 08:15:00
2:35 AM,14.0,6.8,73,30.38,10.0,Calm,Calm,-,N/A,,Clear,0,2012-12-30 08:35:00
2:55 AM,14.0,10.4,86,30.38,10.0,Calm,Calm,-,N/A,,Clear,0,2012-12-30 08:55:00
3:15 AM,10.4,8.6,92,30.39,9.0,Calm,Calm,-,N/A,,Clear,0,2012-12-30 09:15:00
3:35 AM,10.4,8.6,92,30.40,8.0,Calm,Calm,-,N/A,,Clear,0,2012-12-30 09:35:00
3:55 AM,12.2,10.4,92,30.39,10.0,Calm,Calm,-,N/A,,Clear,0,2012-12-30 09:55:00
4:15 AM,15.8,15.8,100,30.38,10.0,Calm,Calm,-,N/A,,Clear,0,2012-12-30 10:15:00
4:35 AM,10.4,6.8,85,30.38,8.0,Calm,Calm,-,N/A,,Clear,0,2012-12-30 10:35:00
4:55 AM,10.4,8.6,92,30.39,8.0,Calm,Calm,-,N/A,,Clear,0,2012-12-30 10:55:00
5:15 AM,10.4,6.8,85,30.39,10.0,Calm,Calm,-,N/A,,Clear,0,2012-12-30 11:15:00
5:35 AM,10.4,8.6,92,30.39,10.0,Calm,Calm,-,N/A,,Clear,0,2012-12-30 11:35:00
5:55 AM,8.6,5.0,85,30.40,9.0,SSE,3.5,-,N/A,,Clear,160,2012-12-30 11:55:00
6:15 AM,10.4,8.6,92,30.40,10.0,SSE,3.5,-,N/A,,Clear,160,2012-12-30 12:15:00
6:35 AM,10.4,8.6,92,30.40,10.0,Calm,Calm,-,N/A,,Clear,0,2012-12-30 12:35:00
6:55 AM,8.6,1.4,73,30.41,9.0,Calm,Calm,-,N/A,,Clear,0,2012-12-30 12:55:00
7:15 AM,10.4,8.6,92,30.41,8.0,Calm,Calm,-,N/A,,Clear,0,2012-12-30 13:15:00
7:35 AM,10.4,8.6,92,30.42,9.0,Calm,Calm,-,N/A,,Clear,0,2012-12-30 13:35:00
7:55 AM,10.4,6.8,85,30.42,9.0,Calm,Calm,-,N/A,,Clear,0,2012-12-30 13:55:00
8:15 AM,12.2,10.4,92,30.43,9.0,South,3.5,-,N/A,,Clear,180,2012-12-30 14:15:00
8:35 AM,15.8,14.0,93,30.44,10.0,Calm,Calm,-,N/A,,Clear,0,2012-12-30 14:35:00
8:55 AM,15.8,12.2,86,30.45,10.0,Calm,Calm,-,N/A,,Clear,0,2012-12-30 14:55:00
9:15 AM,17.6,15.8,93,30.46,10.0,Calm,Calm,-,N/A,,Clear,0,2012-12-30 15:15:00
9:35 AM,19.4,17.6,93,30.46,10.0,Calm,Calm,-,N/A,,Clear,0,2012-12-30 15:35:00
9:55 AM,23.0,21.2,93,30.44,10.0,SSE,3.5,-,N/A,,Clear,150,2012-12-30 15:55:00
10:15 AM,26.6,19.4,74,30.43,10.0,ESE,4.6,-,N/A,,Clear,120,2012-12-30 16:15:00
10:35 AM,26.6,19.4,74,30.43,10.0,Calm,Calm,-,N/A,,Clear,0,2012-12-30 16:35:00
10:55 AM,26.6,21.2,80,30.43,10.0,Calm,Calm,-,N/A,,Clear,0,2012-12-30 16:55:00
11:15 AM,30.2,21.2,69,30.43,10.0,SSE,3.5,-,N/A,,Clear,150,2012-12-30 17:15:00
11:35 AM,30.2,24.8,80,30.41,10.0,SSE,3.5,-,0.01,,Clear,160,2012-12-30 17:35:00
11:55 AM,33.8,24.8,70,30.41,10.0,South,6.9,-,0.01,,Clear,170,2012-12-30 17:55:00
12:15 PM,33.8,24.8,70,30.41,10.0,SSE,5.8,-,N/A,,Clear,160,2012-12-30 18:15:00
12:35 PM,35.6,24.8,65,30.40,10.0,South,8.1,-,N/A,,Clear,180,2012-12-30 18:35:00
12:55 PM,35.6,24.8,65,30.39,10.0,South,10.4,-,N/A,,Clear,170,2012-12-30 18:55:00
1:15 PM,37.4,24.8,60,30.37,10.0,South,8.1,-,N/A,,Clear,180,2012-12-30 19:15:00
1:35 PM,37.4,24.8,60,30.36,10.0,South,9.2,-,N/A,,Clear,170,2012-12-30 19:35:00
1:55 PM,37.4,24.8,60,30.36,10.0,South,9.2,-,N/A,,Clear,170,2012-12-30 19:55:00
2:15 PM,35.6,24.8,65,30.35,10.0,South,13.8,-,N/A,,Clear,170,2012-12-30 20:15:00
2:35 PM,35.6,24.8,65,30.37,10.0,South,12.7,-,N/A,,Clear,170,2012-12-30 20:35:00
2:55 PM,35.6,24.8,65,30.36,10.0,South,13.8,-,N/A,,Clear,180,2012-12-30 20:55:00
3:15 PM,33.8,24.8,70,30.35,10.0,SSE,9.2,-,N/A,,Clear,160,2012-12-30 21:15:00
3:35 PM,33.8,24.8,70,30.37,10.0,South,12.7,-,N/A,,Clear,170,2012-12-30 21:35:00
3:55 PM,33.8,24.8,70,30.36,10.0,South,11.5,-,N/A,,Clear,170,2012-12-30 21:55:00
4:15 PM,33.8,24.8,70,30.35,10.0,South,8.1,-,N/A,,Clear,170,2012-12-30 22:15:00
4:35 PM,32.0,24.8,75,30.34,10.0,South,8.1,-,N/A,,Clear,170,2012-12-30 22:35:00
4:55 PM,32.0,24.8,75,30.34,10.0,South,6.9,-,N/A,,Clear,170,2012-12-30 22:55:00
5:15 PM,32.0,24.8,75,30.34,10.0,South,6.9,-,N/A,,Clear,170,2012-12-30 23:15:00
5:35 PM,32.0,24.8,75,30.34,10.0,South,6.9,-,N/A,,Clear,180,2012-12-30 23:35:00
5:55 PM,30.2,24.8,80,30.34,10.0,South,6.9,-,N/A,,Clear,170,2012-12-30 23:55:00
6:15 PM,30.2,24.8,80,30.33,10.0,South,8.1,-,N/A,,Clear,170,2012-12-31 00:15:00
6:35 PM,30.2,23.0,75,30.33,10.0,South,8.1,-,N/A,,Clear,170,2012-12-31 00:35:00
6:55 PM,30.2,23.0,75,30.33,10.0,South,9.2,-,N/A,,Clear,170,2012-12-31 00:55:00
7:15 PM,30.2,23.0,75,30.32,10.0,South,10.4,-,N/A,,Clear,180,2012-12-31 01:15:00
7:35 PM,30.2,23.0,75,30.33,10.0,South,9.2,-,N/A,,Clear,180,2012-12-31 01:35:00
7:55 PM,28.4,21.2,74,30.32,10.0,South,8.1,-,N/A,,Clear,180,2012-12-31 01:55:00
8:15 PM,28.4,23.0,80,30.31,10.0,South,9.2,-,N/A,,Clear,170,2012-12-31 02:15:00
8:35 PM,28.4,23.0,80,30.31,10.0,South,10.4,-,N/A,,Clear,170,2012-12-31 02:35:00
8:55 PM,30.2,23.0,75,30.30,10.0,South,9.2,-,N/A,,Clear,170,2012-12-31 02:55:00
9:15 PM,30.2,21.2,69,30.30,10.0,South,10.4,-,N/A,,Clear,180,2012-12-31 03:15:00
9:55 PM,30.2,21.2,69,30.28,10.0,South,8.1,-,N/A,,Clear,170,2012-12-31 03:55:00
10:15 PM,30.2,21.2,69,30.28,10.0,SSE,5.8,-,N/A,,Clear,160,2012-12-31 04:15:00
10:35 PM,30.2,21.2,69,30.28,10.0,South,6.9,-,N/A,,Clear,170,2012-12-31 04:35:00
10:55 PM,30.2,21.2,69,30.28,10.0,South,6.9,-,N/A,,Clear,180,2012-12-31 04:55:00
11:15 PM,30.2,21.2,69,30.27,10.0,South,5.8,-,N/A,,Clear,180,2012-12-31 05:15:00
11:35 PM,30.2,21.2,69,30.27,10.0,South,6.9,-,N/A,,Clear,180,2012-12-31 05:35:00